Weather in Karasuk

Russia / Novosibirsk Oblast     53°44′03″N   78°02′32″E
temp.,
°C
wind,
m/s
gust,
m/s
humid.,
%
clouds,
%
prec.,
mm/h
press.,
hPa
HPBL,
m
1 march, mon
mon101:00−5se51096100 0.8 1012379
04:00−3se51097100 1.8 1008486
07:00+1sw61399100 3.4 1006587
10:00+1sw71298100 0.3 1005628
13:000sw71298100 0.8 1006575
16:000wsw71192100 0.1 1006743
19:00−1wsw71196100 0.3 1007636
22:00−5nw479598 0.3 1009230
2 march, tue
tue201:00−12wnw479698 0.3 1012123
04:00−16wnw469797 0.1 1015107
07:00−19w349893 0.1 101739
10:00−19wsw239769 0.0 101860
13:00−15sw349279 0.1 1018263
16:00−13sw3490100 0.1 1017400
19:00−14sw229598 0.3 101725
22:00−16sw229776 0.1 101720
3 march, wed
wed301:00−16sw229777 0.1 101720
04:00−15sw229787 0.1 101653
07:00−16sw229694 0.3 101721
10:00−14sw239696 0.1 1017137
13:00−12sw469392 0.2 1018386
16:00−13sw5893100 0.1 1019413
19:00−15ssw5993100 0.1 1019349
22:00−14s5119294 0.0 1019287
4 march, thu
thu401:00−12s6119393 0.1 1019362
04:00−11ssw61194100 0.4 1017379
07:00−10s61193100 0.7 1017339
10:00−9s71293100 0.1 1016377
13:00−6ssw81293100 0.4 1016519
16:00−3ssw81393100 0.4 1014671
19:00−3ssw81393100 0.9 1013612
22:00−5s7148799 0.0 1012392
5 march, fri
fri501:00−7s6148895 0.0 1011282
04:00−7sse61189100 0.0 1007301
07:00−6sse4996100 0.9 1005421
10:00−6wsw4796100 0.5 1005320
13:00−2w81292100 0.6 1009734
16:00−4wsw8138395 0.1 1015777
19:00−7sw8168265 0.1 1017582
22:00−6sw91980100 0.0 1018814